Voltar ao catálogo

ATLAS 5 CENTAUR DEB

LostHEO
NORAD 49346·DEBRIS·🇺🇸 United States

Lançado Oct 17, 2018 de Cape Canaveral Space Force Station

Loading…

Próximas Passagens (próximas 24 horas)

TLE

ObsoletoSource: Space-Track

Época: Jul 17, 2023, 01:01 UTC

1 49346U 18079EX  23198.04285703 -.00000091  00000-0  00000-0 0  9994
2 49346  12.5642 113.3716 4719526 146.2313 255.3607  1.80299120 12388

Acompanhe ATLAS 5 CENTAUR DEB em tempo real com AllMySat

Download on the App Store